Weather History for Edinburgh Airport, United Kingdom

Change the Weather History Date:

Wednesday, July 10, 2013

  Actual Average Record
Temperature  
Mean Temperature 58 °F -  
Max Temperature 62 °F 66 °F 77 °F (2005)
Min Temperature 53 °F 51 °F 42 °F (2007)
Degree Days  
Heating Degree Days 8    
Growing Degree Days 8 (Base 50)    
Moisture  
Dew Point 54 °F    
Average Humidity 86    
Maximum Humidity 100    
Minimum Humidity 72    
Precipitation  
Precipitation 0.00 in 0.08 in - ()
Sea Level Pressure  
Sea Level Pressure 30.39 in    
Wind  
Wind Speed 9 mph ()    
Max Wind Speed 15 mph    
Max Gust Speed -    
Visibility 6.0 miles    
Events      
Averages and records for this station are not official NWS values.
T = Trace of Precipitation, MM = Missing Value Source: Averaged Metar Reports

Daily Weather History Graph

Daily Weather History Graph

Search for Another Location

Airport:

Trip Planner

Search our weather history database for the weather conditions in past years. The results will help you decide how hot, cold, wet, or windy it might be!

Date:

Astronomy

Jul. 10, 2013 Rise Set
Actual Time 4:41 AM BST 9:54 PM BST
Civil Twilight 3:43 AM BST 10:52 PM BST
Nautical Twilight 1:51 AM BST 12:46 AM BST
Astronomical Twilight Sun does not rise Sun does not rise
Moon 7:24 AM BST (7/10) 10:15 PM BST (7/10)
Length of Visible Light 19h 08m
Length of Day
17h 13m
Waxing Crescent, 4% of the Moon is Illuminated
Jul 10
Waxing Crescent
Jul 16
First Quarter
Jul 22
Full
Jul 29
Last Quarter
Aug 6
New

Hourly Weather History & Observations

Time (BST) Temp. Dew Point Humidity Pressure Visibility Wind Dir Wind Speed Gust Speed Precip Events Conditions
12:20 AM 59.0 °F 55.4 °F 88% 30.42 in 6.2 mi ENE 11.5 mph - N/A   Overcast
12:50 AM 59.0 °F 55.4 °F 88% 30.42 in 6.2 mi ENE 11.5 mph - N/A   Overcast
1:20 AM 59.0 °F 55.4 °F 88% 30.42 in 6.2 mi ENE 12.7 mph - N/A   Overcast
1:50 AM 59.0 °F 55.4 °F 88% 30.42 in 6.2 mi ENE 8.1 mph - N/A   Overcast
2:20 AM 57.2 °F 55.4 °F 94% 30.42 in 6.2 mi NE 8.1 mph - N/A   Overcast
2:50 AM 57.2 °F 55.4 °F 94% 30.42 in 6.2 mi NE 8.1 mph - N/A   Overcast
3:20 AM 57.2 °F 55.4 °F 94% 30.42 in 6.2 mi NE 8.1 mph - N/A   Overcast
3:50 AM 57.2 °F 53.6 °F 88% 30.42 in 6.2 mi NE 8.1 mph - N/A   Overcast
4:20 AM 57.2 °F 55.4 °F 94% 30.42 in 6.2 mi NE 9.2 mph - N/A   Overcast
4:50 AM 57.2 °F 53.6 °F 88% 30.42 in 6.2 mi NE 10.4 mph - N/A   Overcast
5:20 AM 55.4 °F 53.6 °F 94% 30.39 in 6.2 mi ENE 10.4 mph - N/A   Overcast
5:50 AM 55.4 °F 55.4 °F 100% 30.39 in 6.2 mi NE 11.5 mph - N/A   Overcast
6:20 AM 57.2 °F 55.4 °F 94% 30.39 in 6.2 mi NE 11.5 mph - N/A   Overcast
6:50 AM 57.2 °F 53.6 °F 88% 30.39 in 6.2 mi ENE 10.4 mph - N/A   Overcast
7:20 AM 57.2 °F 53.6 °F 88% 30.42 in 6.2 mi NE 10.4 mph - N/A   Overcast
7:50 AM 57.2 °F 53.6 °F 88% 30.42 in 6.2 mi NE 10.4 mph - N/A   Overcast
8:20 AM 57.2 °F 53.6 °F 88% 30.42 in 6.2 mi NE 9.2 mph - N/A   Overcast
8:50 AM 57.2 °F 53.6 °F 88% 30.42 in 6.2 mi NE 10.4 mph - N/A   Overcast
9:20 AM 57.2 °F 53.6 °F 88% 30.42 in 6.2 mi NE 11.5 mph - N/A   Overcast
9:50 AM 57.2 °F 53.6 °F 88% 30.42 in 6.2 mi NE 10.4 mph - N/A   Overcast
10:20 AM 57.2 °F 53.6 °F 88% 30.42 in 2.5 mi ENE 11.5 mph - N/A   Overcast
10:50 AM 57.2 °F 55.4 °F 94% 30.42 in 2.5 mi NE 9.2 mph - N/A   Overcast
11:20 AM 59.0 °F 55.4 °F 88% 30.42 in 6.2 mi ENE 10.4 mph - N/A   Overcast
11:50 AM 57.2 °F 53.6 °F 88% 30.42 in 6.2 mi NE 9.2 mph - N/A   Overcast
12:20 PM 59.0 °F 53.6 °F 82% 30.42 in 6.2 mi ENE 10.4 mph - N/A   Overcast
12:50 PM 60.8 °F 55.4 °F 82% 30.39 in 6.2 mi NE 9.2 mph - N/A   Mostly Cloudy
1:20 PM 60.8 °F 55.4 °F 82% 30.39 in 6.2 mi NE 9.2 mph - N/A   Mostly Cloudy
1:50 PM 60.8 °F 55.4 °F 82% 30.39 in 6.2 mi NE 9.2 mph - N/A   Scattered Clouds
2:20 PM 62.6 °F 55.4 °F 77% 30.39 in 6.2 mi NE 10.4 mph - N/A   Partly Cloudy
2:50 PM 62.6 °F 55.4 °F 77% 30.39 in 6.2 mi NE 12.7 mph - N/A   Partly Cloudy
3:20 PM 62.6 °F 53.6 °F 72% 30.39 in 6.2 mi NE 15.0 mph - N/A   Partly Cloudy
3:50 PM 62.6 °F 53.6 °F 72% 30.39 in 6.2 mi NE 13.8 mph - N/A   Partly Cloudy
4:20 PM 62.6 °F 53.6 °F 72% 30.36 in - ENE 11.5 mph - N/A   Clear
4:50 PM 60.8 °F 53.6 °F 77% 30.36 in - NE 12.7 mph - N/A   Clear
5:20 PM 60.8 °F 53.6 °F 77% 30.36 in - NE 12.7 mph - N/A   Clear
5:50 PM 62.6 °F 53.6 °F 72% 30.36 in - ENE 11.5 mph - N/A   Clear
6:20 PM 60.8 °F 53.6 °F 77% 30.36 in - ENE 11.5 mph - N/A   Clear
6:50 PM 60.8 °F 53.6 °F 77% 30.36 in - NE 10.4 mph - N/A   Clear
7:20 PM 60.8 °F 53.6 °F 77% 30.36 in - NE 9.2 mph - N/A   Clear
7:50 PM 59.0 °F 53.6 °F 82% 30.36 in 6.2 mi NE 9.2 mph - N/A   Unknown
8:20 PM 57.2 °F 53.6 °F 88% 30.36 in - NE 10.4 mph - N/A   Clear
8:50 PM 57.2 °F 53.6 °F 88% 30.36 in 6.2 mi NE 11.5 mph - N/A   Scattered Clouds
9:20 PM 55.4 °F 53.6 °F 94% 30.36 in 6.2 mi NE 12.7 mph - N/A   Scattered Clouds
9:50 PM 55.4 °F 53.6 °F 94% 30.36 in 6.2 mi NE 9.2 mph - N/A   Scattered Clouds
10:20 PM 55.4 °F 51.8 °F 88% 30.36 in 6.2 mi NE 6.9 mph - N/A   Overcast
10:50 PM 53.6 °F 51.8 °F 94% 30.36 in 6.2 mi NE 9.2 mph - N/A   Partly Cloudy
11:20 PM 53.6 °F 51.8 °F 94% 30.36 in 6.2 mi NE 4.6 mph - N/A   Mostly Cloudy
11:50 PM 55.4 °F 53.6 °F 94% 30.36 in 6.2 mi ENE 6.9 mph - N/A   Overcast